FW9688 Weather Reports


time (UTC)temp
C
wind
direction
speed
KPH
gust
KPH
rain 1hr
cm
rain 24hr
cm
rain mn
cm
humidity
%
barometer
mb
20260507124536 11 360 22.5 32.2 0.00 0.00 0.00 73 1020.1
20260507123042 11 360 19.3 27.4 0.00 0.00 0.00 73 1019.7
20260507121540 11 360 20.9 27.4 0.00 0.00 0.00 72 1019.6
20260507120050 11 360 19.3 30.6 0.00 0.00 0.00 72 1019.3
20260507114603 11 360 22.5 29.0 0.00 0.00 0.00 71 1019.2
20260507113044 12 360 25.7 37.0 0.00 0.00 0.00 69 1019.1
20260507111544 12 360 27.4 38.6 0.00 0.00 0.00 69 1018.7
20260507110043 12 360 25.7 40.2 0.00 0.00 0.00 67 1018.5
20260507104543 12 360 30.6 40.2 0.00 0.00 0.00 66 1018.3
20260507103038 12 360 30.6 41.8 0.00 0.00 0.00 66 1018.3
20260507101542 12 360 25.7 37.0 0.00 0.00 0.00 66 1018.2
20260507100037 12 360 27.4 38.6 0.00 0.00 0.00 66 1018.1
20260507094544 12 360 20.9 27.4 0.00 0.00 0.00 68 1018.2
20260507093047 11 360 11.3 19.3 0.00 0.00 0.00 64 1018.1
20260507091545 11 360 12.9 25.7 0.00 0.00 0.00 62 1017.9
20260507090040 11 360 11.3 32.2 0.00 0.00 0.00 61 1017.9
20260507084543 11 360 19.3 37.0 0.00 0.00 0.00 59 1017.7
20260507083047 12 360 24.1 29.0 0.00 0.00 0.00 55 1017.6
20260507081540 14 360 14.5 20.9 0.00 0.00 0.00 46 1017.3
20260507080045 16 360 14.5 19.3 0.00 0.00 0.00 45 1017.2
20260507074542 18 360 3.2 14.5 0.00 0.00 0.00 50 1017.1
20260507073046 19 360 6.4 14.5 0.00 0.00 0.00 47 1016.7
20260507071541 19 360 6.4 24.1 0.00 0.00 0.00 44 1017.0
20260507070039 19 360 9.7 22.5 0.00 0.00 0.00 36 1016.3
20260507064538 18 360 17.7 25.7 0.00 0.00 0.00 28 1015.8
20260507063037 20 360 8.0 12.9 0.00 0.00 0.00 24 1015.4
20260507061544 18 360 11.3 16.1 0.00 0.00 0.00 26 1015.4
20260507060047 18 360 8.0 9.7 0.00 0.00 0.00 27 1015.2
20260507054541 20 360 6.4 9.7 0.00 0.00 0.00 25 1015.0
20260507053042 18 360 6.4 12.9 0.00 0.00 0.00 27 1015.0
20260507051538 21 360 6.4 9.7 0.00 0.00 0.00 20 1015.0
20260507050037 22 360 4.8 6.4 0.00 0.00 0.00 20 1015.1
20260507044635 22 360 4.8 6.4 0.00 0.00 0.00 20 1015.1
20260507044538 22 360 4.8 6.4 0.00 0.00 0.00 20 1015.1
20260507043039 22 360 4.8 6.4 0.00 0.00 0.00 20 1014.9
20260507041538 22 360 3.2 6.4 0.00 0.00 0.00 21 1014.6
20260507040041 22 360 3.2 6.4 0.00 0.00 0.00 21 1014.6
20260507034538 22 360 4.8 8.0 0.00 0.00 0.00 22 1014.5
20260507033049 22 360 6.4 9.7 0.00 0.00 0.00 22 1014.3
20260507031540 21 360 6.4 14.5 0.00 0.00 0.00 24 1014.1
20260507030038 21 360 12.9 17.7 0.00 0.00 0.00 24 1013.9
20260507024537 22 360 8.0 16.1 0.00 0.00 0.00 23 1013.5
20260507023049 22 360 11.3 16.1 0.00 0.00 0.00 21 1013.1
20260507021546 23 360 12.9 19.3 0.00 0.00 0.00 20 1012.9
20260507020104 23 360 16.1 20.9 0.00 0.00 0.00 19 1012.8
20260507014552 24 360 17.7 22.5 0.00 0.00 0.00 18 1012.7
20260507013052 25 360 22.5 29.0 0.00 0.00 0.00 16 1012.3
20260507011544 26 360 19.3 30.6 0.00 0.00 0.00 17 1012.2
20260507010048 26 360 24.1 35.4 0.00 0.00 0.00 16 1012.5
20260507004552 26 360 20.9 37.0 0.00 0.00 0.00 16 1012.4
20260507003047 26 360 32.2 40.2 0.00 0.00 0.00 16 1012.2
20260507001547 26 360 22.5 38.6 0.00 0.00 0.00 16 1012.1
20260507000045 26 360 27.4 40.2 0.00 0.00 0.00 16 1012.0
20260506234549 26 360 20.9 45.1 0.00 0.00 0.00 16 1011.8
20260506233058 26 360 33.8 46.7 0.00 0.00 0.00 15 1011.9
20260506231542 27 360 37.0 48.3 0.00 0.00 0.00 15 1011.7
20260506230047 26 360 27.4 48.3 0.00 0.00 0.00 15 1011.6
20260506224538 27 360 30.6 45.1 0.00 0.00 0.00 16 1011.5
20260506223046 27 360 32.2 46.7 0.00 0.00 0.00 17 1011.3
20260506221549 26 360 35.4 45.1 0.00 0.00 0.00 17 1011.6
20260506220046 26 360 29.0 41.8 0.00 0.00 0.00 17 1011.5
20260506214544 26 360 37.0 46.7 0.00 0.00 0.00 17 1011.6
20260506213051 26 360 22.5 40.2 0.00 0.00 0.00 18 1011.9
20260506211537 26 360 30.6 45.1 0.00 0.00 0.00 17 1011.9
20260506210045 26 360 25.7 43.5 0.00 0.00 0.00 18 1012.3
20260506204545 25 360 19.3 43.5 0.00 0.00 0.00 19 1012.3
20260506203036 26 244 22.5 41.8 0.00 0.00 0.00 19 1012.6
20260506201543 25 360 20.9 32.2 0.00 0.00 0.00 21 1012.5
20260506200039 25 360 19.3 38.6 0.00 0.00 0.00 23 1012.7
20260506194538 25 360 14.5 27.4 0.00 0.00 0.00 24 1013.0
20260506193038 24 360 9.7 38.6 0.00 0.00 0.00 25 1013.1
20260506191543 25 360 24.1 38.6 0.00 0.00 0.00 24 1013.3
20260506190044 24 360 16.1 25.7 0.00 0.00 0.00 25 1013.6
20260506184550 23 360 16.1 38.6 0.00 0.00 0.00 25 1013.9
20260506183051 23 360 17.7 32.2 0.00 0.00 0.00 26 1014.0
20260506181605 23 360 17.7 29.0 0.00 0.00 0.00 26 1014.2
20260506180037 23 360 9.7 24.1 0.00 0.00 0.00 28 1014.5
20260506174543 23 360 14.5 24.1 0.00 0.00 0.00 36 1014.7
20260506173056 21 360 9.7 17.7 0.00 0.00 0.00 39 1014.9
20260506171540 21 360 14.5 24.1 0.00 0.00 0.00 41 1014.6
20260506170042 21 360 4.8 20.9 0.00 0.00 0.00 42 1014.7
20260506164539 21 360 14.5 22.5 0.00 0.00 0.00 42 1014.6
20260506163039 23 360 16.1 27.4 0.00 0.00 0.00 34 1014.6
20260506161546 22 360 12.9 24.1 0.00 0.00 0.00 29 1014.6
20260506160051 22 360 17.7 24.1 0.00 0.00 0.00 28 1014.3
20260506154547 21 360 14.5 22.5 0.00 0.00 0.00 31 1014.2
20260506153055 21 360 11.3 22.5 0.00 0.00 0.00 36 1014.1
20260506151543 20 360 17.7 25.7 0.00 0.00 0.00 37 1013.9
20260506150044 21 360 24.1 33.8 0.00 0.00 0.00 35 1013.6
20260506144537 20 360 14.5 20.9 0.00 0.00 0.00 37 1013.6
20260506143042 19 360 11.3 17.7 0.00 0.00 0.00 39 1013.6
20260506141540 18 360 12.9 19.3 0.00 0.00 0.00 38 1013.6
20260506140038 18 360 14.5 20.9 0.00 0.00 0.00 36 1013.3
20260506134537 18 360 17.7 27.4 0.00 0.00 0.00 37 1013.1
20260506133038 18 360 17.7 24.1 0.00 0.00 0.00 36 1012.9
20260506131551 18 360 16.1 20.9 0.00 0.00 0.00 36 1012.7
20260506130043 18 360 12.9 17.7 0.00 0.00 0.00 37 1012.7